Weather History for Mineral Point, WI

Change the Weather History Date:

Sunday, March 31, 2013

  Actual Average (KLNR) Record (KLNR)
Temperature  
Mean Temperature 37 °F -  
Max Temperature 42 °F 50 °F 71 °F (1999)
Min Temperature 32 °F 31 °F 19 °F (2003)
Degree Days  
Heating Degree Days 28    
Moisture  
Dew Point 30 °F    
Average Humidity 75    
Maximum Humidity 93    
Minimum Humidity 48    
Precipitation  
Precipitation 0.00 in - - ()
Sea Level Pressure  
Sea Level Pressure 29.81 in    
Wind  
Wind Speed 10 mph (WNW)    
Max Wind Speed 25 mph    
Max Gust Speed 31 mph    
Visibility 7 miles    
Events Fog    
Averages and records for this station are not official NWS values.
T = Trace of Precipitation, MM = Missing Value Source: NWS Daily Summary

Daily Weather History Graph

Daily Weather History Graph

Search for Another Location

Airport:

Trip Planner

Search our weather history database for the weather conditions in past years. The results will help you decide how hot, cold, wet, or windy it might be!

Date:

Astronomy

Mar. 31, 2013 Rise Set
Actual Time 6:44 AM CDT 7:26 PM CDT
Civil Twilight 6:15 AM CDT 7:54 PM CDT
Nautical Twilight 5:41 AM CDT 8:28 PM CDT
Astronomical Twilight 5:06 AM CDT 9:04 PM CDT
Moon No Moon Rise 9:25 AM CDT (3/31)
Length of Visible Light 13h 39m
Length of Day
12h 41m
Waning Gibbous, 77% of the Moon is Illuminated
Mar 31
Waning Gibbous
Apr 2
Last Quarter
Apr 10
New
Apr 18
First Quarter
Apr 25
Full

Hourly Weather History & Observations

Time (CDT) Temp. Windchill Dew Point Humidity Pressure Visibility Wind Dir Wind Speed Gust Speed Precip Events Conditions
12:15 AM 41.0 °F 35.2 °F 37.4 °F 87% 29.83 in 7.0 mi NW 9.2 mph - N/A   Overcast
12:35 AM 41.0 °F 36.4 °F 37.4 °F 87% 29.82 in 7.0 mi NW 6.9 mph - N/A   Overcast
12:55 AM 41.0 °F 37.1 °F 35.6 °F 81% 29.82 in 7.0 mi NW 5.8 mph - N/A   Overcast
1:15 AM 41.0 °F 37.1 °F 35.6 °F 81% 29.82 in 7.0 mi WNW 5.8 mph - N/A   Overcast
1:55 AM 39.2 °F 35.9 °F 35.6 °F 87% 29.82 in 5.0 mi WNW 4.6 mph - N/A   Mostly Cloudy
2:15 AM 37.4 °F - 35.6 °F 93% 29.81 in 5.0 mi Calm Calm - N/A   Scattered Clouds
2:35 AM 37.4 °F 33.8 °F 35.6 °F 93% 29.80 in 3.0 mi West 4.6 mph - N/A   Scattered Clouds
2:55 AM 37.4 °F 34.9 °F 35.6 °F 93% 29.80 in 2.5 mi West 3.5 mph - N/A   Overcast
3:15 AM 37.4 °F 32.8 °F 35.6 °F 93% 29.80 in 3.0 mi WSW 5.8 mph - N/A   Overcast
3:55 AM 39.2 °F 33.6 °F 37.4 °F 93% 29.79 in 2.5 mi West 8.1 mph - N/A   Overcast
4:15 AM 41.0 °F 36.4 °F 37.4 °F 87% 29.79 in 2.0 mi West 6.9 mph - N/A   Overcast
4:35 AM 41.0 °F 35.8 °F 37.4 °F 87% 29.79 in 2.0 mi West 8.1 mph - N/A   Overcast
4:55 AM 39.2 °F 31.6 °F 37.4 °F 93% 29.78 in 0.2 mi West 12.7 mph - N/A Fog Fog
5:15 AM 39.2 °F 32.0 °F 35.6 °F 87% 29.78 in 0.2 mi West 11.5 mph - N/A Fog Fog
5:35 AM 37.4 °F 29.3 °F 35.6 °F 93% 29.78 in 0.2 mi West 12.7 mph - N/A Fog Fog
5:55 AM 37.4 °F 30.3 °F 35.6 °F 93% 29.78 in 0.5 mi West 10.4 mph - N/A Fog Fog
6:15 AM 37.4 °F 30.3 °F 35.6 °F 93% 29.78 in 0.5 mi West 10.4 mph - N/A Fog Fog
6:35 AM 35.6 °F 29.2 °F 33.8 °F 93% 29.78 in 1.0 mi West 8.1 mph - N/A   Overcast
6:55 AM 35.6 °F 29.2 °F 33.8 °F 93% 29.78 in 0.5 mi West 8.1 mph - N/A Fog Fog
7:15 AM 35.6 °F 29.2 °F 33.8 °F 93% 29.77 in 0.8 mi West 8.1 mph - N/A   Overcast
7:55 AM 35.6 °F 28.6 °F 33.8 °F 93% 29.77 in 0.2 mi West 9.2 mph - N/A Fog Fog
8:15 AM 35.6 °F 29.2 °F 33.8 °F 93% 29.77 in 1.5 mi WSW 8.1 mph - N/A   Overcast
8:35 AM 37.4 °F 32.1 °F 35.6 °F 93% 29.76 in 5.0 mi WSW 6.9 mph - N/A   Scattered Clouds
8:55 AM 37.4 °F 32.1 °F 35.6 °F 93% 29.76 in 5.0 mi West 6.9 mph - N/A   Clear
9:15 AM 41.0 °F 35.8 °F 35.6 °F 81% 29.76 in 10.0 mi West 8.1 mph - N/A   Clear
9:35 AM 42.8 °F 37.0 °F 35.6 °F 76% 29.76 in 10.0 mi WNW 10.4 mph - N/A   Clear
9:55 AM 42.8 °F 35.1 °F 35.6 °F 76% 29.76 in 10.0 mi West 16.1 mph 25.3 mph N/A   Scattered Clouds
10:15 AM 41.0 °F 32.2 °F 35.6 °F 81% 29.76 in 10.0 mi West 18.4 mph 25.3 mph N/A   Mostly Cloudy
10:35 AM 39.2 °F 31.2 °F 33.8 °F 81% 29.77 in 10.0 mi West 13.8 mph 17.3 mph N/A   Overcast
10:55 AM 37.4 °F 29.3 °F 33.8 °F 87% 29.77 in 7.0 mi WNW 12.7 mph 18.4 mph N/A   Overcast
11:15 AM 37.4 °F 28.9 °F 33.8 °F 87% 29.77 in 7.0 mi West 13.8 mph - N/A   Overcast
11:35 AM 37.4 °F 28.5 °F 33.8 °F 87% 29.77 in 7.0 mi West 15.0 mph 20.7 mph N/A   Overcast
11:55 AM 39.2 °F 30.8 °F 33.8 °F 81% 29.77 in 10.0 mi West 15.0 mph - N/A   Overcast
12:15 PM 37.4 °F 27.8 °F 33.8 °F 87% 29.77 in 7.0 mi West 17.3 mph - N/A   Overcast
12:35 PM 37.4 °F 27.8 °F 33.8 °F 87% 29.78 in 7.0 mi West 17.3 mph 24.2 mph N/A   Overcast
12:55 PM 37.4 °F 28.5 °F 32.0 °F 81% 29.78 in 7.0 mi WNW 15.0 mph 20.7 mph N/A   Overcast
1:15 PM 39.2 °F 30.5 °F 33.8 °F 81% 29.79 in 7.0 mi West 16.1 mph 24.2 mph N/A   Overcast
1:35 PM 41.0 °F 30.7 °F 32.0 °F 70% 29.78 in 10.0 mi West 25.3 mph 29.9 mph N/A   Overcast
1:55 PM 41.0 °F 32.8 °F 32.0 °F 70% 29.79 in 10.0 mi West 16.1 mph 23.0 mph N/A   Overcast
2:15 PM 41.0 °F 31.6 °F 32.0 °F 70% 29.78 in 10.0 mi West 20.7 mph 28.8 mph N/A   Overcast
2:35 PM 41.0 °F 32.2 °F 30.2 °F 65% 29.78 in 10.0 mi WNW 18.4 mph 31.1 mph N/A   Overcast
2:55 PM 41.0 °F 32.2 °F 30.2 °F 65% 29.78 in 10.0 mi WNW 18.4 mph 26.5 mph N/A   Overcast
3:15 PM 41.0 °F 32.2 °F 30.2 °F 65% 29.79 in 10.0 mi West 18.4 mph 26.5 mph N/A   Overcast
3:35 PM 39.2 °F 31.2 °F 30.2 °F 70% 29.79 in 10.0 mi WNW 13.8 mph 24.2 mph N/A   Overcast
3:55 PM 39.2 °F 30.8 °F 30.2 °F 70% 29.79 in 10.0 mi WNW 15.0 mph 21.9 mph N/A   Overcast
4:15 PM 39.2 °F 31.6 °F 30.2 °F 70% 29.80 in 10.0 mi WNW 12.7 mph 24.2 mph N/A   Overcast
4:35 PM 41.0 °F 33.1 °F 30.2 °F 65% 29.80 in 10.0 mi WNW 15.0 mph 19.6 mph N/A   Overcast
4:55 PM 39.2 °F 32.0 °F 30.2 °F 70% 29.80 in 10.0 mi WNW 11.5 mph 16.1 mph N/A   Overcast
5:15 PM 41.0 °F 32.5 °F 28.4 °F 61% 29.80 in 10.0 mi WNW 17.3 mph 25.3 mph N/A   Overcast
5:55 PM 41.0 °F 33.1 °F 28.4 °F 61% 29.80 in 10.0 mi West 15.0 mph 24.2 mph N/A   Overcast
6:15 PM 41.0 °F 33.1 °F 28.4 °F 61% 29.81 in 10.0 mi WNW 15.0 mph 24.2 mph N/A   Mostly Cloudy
6:35 PM 39.2 °F 30.8 °F 26.6 °F 61% 29.82 in 10.0 mi West 15.0 mph 24.2 mph N/A   Mostly Cloudy
6:55 PM 39.2 °F 31.2 °F 24.8 °F 56% 29.82 in 10.0 mi WNW 13.8 mph 23.0 mph N/A   Mostly Cloudy
7:15 PM 37.4 °F 29.3 °F 26.6 °F 65% 29.83 in 10.0 mi WNW 12.7 mph 19.6 mph N/A   Mostly Cloudy
7:35 PM 35.6 °F 26.6 °F 26.6 °F 70% 29.83 in 10.0 mi WNW 13.8 mph 20.7 mph N/A   Scattered Clouds
7:55 PM 35.6 °F 26.2 °F 23.0 °F 60% 29.84 in 10.0 mi WNW 15.0 mph 25.3 mph N/A   Scattered Clouds
8:15 PM 35.6 °F 27.1 °F 21.2 °F 56% 29.85 in 10.0 mi WNW 12.7 mph 19.6 mph N/A   Scattered Clouds
8:35 PM 35.6 °F 27.5 °F 23.0 °F 60% 29.86 in 10.0 mi WNW 11.5 mph 16.1 mph N/A   Clear
8:55 PM 35.6 °F 27.5 °F 21.2 °F 56% 29.87 in 10.0 mi WNW 11.5 mph - N/A   Clear
9:15 PM 35.6 °F 29.2 °F 21.2 °F 56% 29.89 in 10.0 mi NW 8.1 mph - N/A   Clear
9:35 PM 33.8 °F 27.0 °F 19.4 °F 56% 29.90 in 10.0 mi NW 8.1 mph - N/A   Clear
9:55 PM 33.8 °F 26.4 °F 19.4 °F 56% 29.90 in 10.0 mi NW 9.2 mph - N/A   Clear
10:15 PM 33.8 °F 25.8 °F 17.6 °F 52% 29.91 in 10.0 mi NW 10.4 mph - N/A   Clear
10:35 PM 33.8 °F 27.0 °F 15.8 °F 48% 29.92 in 10.0 mi NW 8.1 mph - N/A   Clear
10:55 PM 32.0 °F 23.6 °F 15.8 °F 51% 29.92 in 10.0 mi NW 10.4 mph - N/A   Clear
11:15 PM 32.0 °F 24.2 °F 14.0 °F 48% 29.93 in 10.0 mi NW 9.2 mph - N/A   Clear
11:35 PM 32.0 °F 23.6 °F 14.0 °F 48% 29.93 in 10.0 mi NW 10.4 mph - N/A   Clear
11:55 PM 32.0 °F 23.0 °F 14.0 °F 48% 29.94 in 10.0 mi NW 11.5 mph 16.1 mph N/A   Clear